Jaipur, India

2:28 PM IST on March 25, 2017 (GMT +0530)
Jaipur

Weather History for VIJP - October, 2013

Change the Weather History Date:

Sunday, October 6, 2013

  Actual Average Record
Temperature  
Mean Temperature 82 °F -  
Max Temperature 92 °F - - ()
Min Temperature 73 °F - - ()
Cooling Degree Days 18    
Growing Degree Days 32 (Base 50)    
Moisture  
Dew Point 71 °F    
Average Humidity 67    
Maximum Humidity 94    
Minimum Humidity 37    
Precipitation  
Precipitation 0.00 in - - ()
Sea Level Pressure  
Sea Level Pressure 29.76 in    
Wind  
Wind Speed 1 mph ()    
Max Wind Speed 7 mph    
Max Gust Speed -    
Visibility 2.0 miles    
Events      
T = Trace of Precipitation, MM = Missing Value Source: Averaged Metar Reports

Daily Weather History Graph

Daily Weather History Graph

Search for Another Location

Airport or City:

Trip Planner

Search our weather history database for the weather conditions in past years. The results will help you decide how hot, cold, wet, or windy it might be!

Date:

Astronomy

Oct. 06, 2013 Rise Set
Actual Time 6:21 AM IST 6:07 PM IST
Civil Twilight 5:58 AM IST 6:31 PM IST
Nautical Twilight 5:31 AM IST 6:57 PM IST
Astronomical Twilight 5:04 AM IST 7:24 PM IST
Moon 7:26 AM IST (10/6) 6:59 PM IST (10/6)
Length of Visible Light 12h 32m
Length of Day
11h 46m
New Moon, 2% of the Moon is Illuminated
Oct 6
New Moon
Oct 12
First Quarter
Oct 19
Full
Oct 27
Last Quarter
Nov 3
New

Hourly Weather History & Observations

Time (IST) Temp. Heat Index Dew Point Humidity Pressure Visibility Wind Dir Wind Speed Gust Speed Precip Events Conditions
12:00 AM 78.8 °F - 71.6 °F 78% 29.74 in 1.6 mi Calm Calm - N/A   Haze
1:00 AM 77.0 °F - 71.6 °F 83% 29.74 in 1.6 mi Calm Calm - N/A   Haze
2:00 AM 75.2 °F - 71.6 °F 89% 29.71 in 1.6 mi Calm Calm - N/A   Haze
2:30 AM 77 °F - 71 °F 77% 29.66 in 1 mi Calm Calm - -   Haze
4:00 AM 75.2 °F - 71.6 °F 89% 29.71 in 1.6 mi Calm Calm - N/A   Haze
5:00 AM 73.4 °F - 71.6 °F 94% 29.74 in 1.6 mi Calm Calm - N/A   Haze
5:30 AM 74 °F - 71 °F 88% 29.69 in 1 mi Calm Calm - -   Haze
6:00 AM 73.4 °F - 71.6 °F 94% 29.77 in 1.6 mi Calm Calm - N/A   Haze
7:00 AM 75.2 °F - 71.6 °F 89% 29.77 in 1.6 mi Calm Calm - N/A   Haze
9:00 AM 82.4 °F 87.2 °F 71.6 °F 70% 29.83 in 2.5 mi East 5.8 mph - N/A   Haze
10:00 AM 86.0 °F 91.8 °F 71.6 °F 62% 29.83 in 2.5 mi East 5.8 mph - N/A   Haze
11:00 AM 87.8 °F 93.8 °F 71.6 °F 58% 29.83 in 2.5 mi Variable 4.6 mph - N/A   Haze
12:00 PM 87.8 °F 93.8 °F 71.6 °F 58% 29.80 in 2.5 mi Variable 1.2 mph - N/A   Haze
1:00 PM 89.6 °F 94.7 °F 69.8 °F 52% 29.77 in 2.5 mi Variable 3.5 mph - N/A   Haze
2:00 PM 89.6 °F 93.4 °F 68.0 °F 49% 29.74 in 2.5 mi SE 6.9 mph - N/A   Haze
2:30 PM 91 °F - 68 °F 37% 29.67 in 2 mi SE 3.5 mph - -   Haze
3:00 PM 91.4 °F 95.4 °F 68.0 °F 46% 29.74 in 2.5 mi ESE 5.8 mph - N/A   Haze
4:00 PM 91.4 °F 94.0 °F 66.2 °F 43% 29.74 in 2.5 mi ENE 4.6 mph - N/A   Haze
5:00 PM 91.4 °F 95.4 °F 68.0 °F 46% 29.74 in 2.5 mi East 4.6 mph - N/A   Haze
5:30 PM 89 °F - 71 °F 46% 29.66 in 2 mi ENE 3.5 mph - -   Haze
6:00 PM 91.4 °F 96.8 °F 69.8 °F 49% 29.74 in 2.5 mi Calm Calm - N/A   Haze
7:00 PM 86.0 °F 90.4 °F 69.8 °F 58% 29.77 in 2.5 mi Calm Calm - N/A   Haze
8:00 PM 84.2 °F 89.6 °F 71.6 °F 66% 29.80 in 2.5 mi Calm Calm - N/A   Haze
8:30 PM 82 °F - 71 °F 61% 29.73 in 1 mi Calm Calm - -   Haze
9:00 PM 84.2 °F 89.6 °F 71.6 °F 66% 29.83 in 1.9 mi Variable 1.2 mph - N/A   Haze
10:00 PM 80.6 °F 84.6 °F 71.6 °F 74% 29.83 in 1.9 mi East 4.6 mph - N/A   Haze
11:00 PM 80.6 °F 84.6 °F 71.6 °F 74% 29.83 in 1.9 mi Calm Calm - N/A   Haze